Weather History for KCMH - October, 2010

Change the Weather History Date:

Saturday, October 9, 2010

  Actual Average Record
Temperature  
Mean Temperature 66 °F 57 °F  
Max Temperature 84 °F 68 °F 88 °F (1939)
Min Temperature 47 °F 47 °F 29 °F (1951)
Degree Days  
Heating Degree Days 0 8  
Month to date heating degree days 69 65  
Since 1 July heating degree days 110 134  
Cooling Degree Days 1 1  
Month to date cooling degree days 1 10  
Year to date cooling degree days 1319 1021  
Growing Degree Days 15 (Base 50)    
Moisture  
Dew Point 45 °F    
Average Humidity 57    
Maximum Humidity 93    
Minimum Humidity 20    
Precipitation  
Precipitation 0.00 in 0.09 in 1.21 in (1990)
Month to date precipitation 0.16 0.78  
Year to date precipitation 29.28 31.31  
Snow  
Snow 0.00 in 0.00 in - ()
Month to date snowfall 0.0 0.0  
Since 1 July snowfall 0.0 0.0  
Since 1 September snowfall 0.0 0.0  
Snow Depth 0.00 in    
Sea Level Pressure  
Sea Level Pressure 30.02 in    
Wind  
Wind Speed 2 mph (WSW)    
Max Wind Speed 14 mph    
Max Gust Speed 17 mph    
Visibility 10 miles    
Events      
T = Trace of Precipitation, MM = Missing Value Source: NWS Daily Summary

Daily Weather History Graph

Daily Weather History Graph

Search for Another Location

Airport or City:

Trip Planner

Search our weather history database for the weather conditions in past years. The results will help you decide how hot, cold, wet, or windy it might be!

Date:

Astronomy

Oct. 09, 2010 Rise Set
Actual Time 7:35 AM EDT 7:01 PM EDT
Civil Twilight 7:08 AM EDT 7:28 PM EDT
Nautical Twilight 6:37 AM EDT 7:59 PM EDT
Astronomical Twilight 6:05 AM EDT 8:30 PM EDT
Moon 9:54 AM EDT (10/9) 7:56 PM EDT (10/9)
Length of Visible Light 12h 19m
Length of Day
11h 25m
Waxing Crescent, 5% of the Moon is Illuminated
Oct 9
Waxing Crescent
Oct 14
First Quarter
Oct 22
Full
Oct 30
Last Quarter
Nov 6
New

Hourly Weather History & Observations

Time (EDT) Temp. Dew Point Humidity Pressure Visibility Wind Dir Wind Speed Gust Speed Precip Events Conditions
12:51 AM 53.1 °F 46.9 °F 80% 30.04 in 10.0 mi Calm Calm - N/A   Clear
1:51 AM 51.1 °F 46.9 °F 86% 30.03 in 10.0 mi Calm Calm - N/A   Clear
2:51 AM 50.0 °F 46.0 °F 86% 30.04 in 10.0 mi East 3.5 mph - N/A   Clear
3:51 AM 50.0 °F 45.0 °F 83% 30.03 in 10.0 mi Calm Calm - N/A   Clear
4:51 AM 48.9 °F 45.0 °F 86% 30.04 in 10.0 mi Calm Calm - N/A   Clear
5:51 AM 48.0 °F 44.1 °F 86% 30.05 in 10.0 mi Calm Calm - N/A   Clear
6:51 AM 46.4 °F 44.6 °F 93% 30.06 in 10.0 mi Calm Calm - N/A   Clear
7:51 AM 48.0 °F 44.1 °F 86% 30.06 in 10.0 mi Calm Calm - N/A   Clear
8:51 AM 51.8 °F 44.6 °F 76% 30.07 in 10.0 mi SSE 3.5 mph - N/A   Clear
9:51 AM 57.0 °F 45.0 °F 64% 30.08 in 10.0 mi South 4.6 mph - N/A   Clear
10:51 AM 63.0 °F 44.1 °F 50% 30.07 in 10.0 mi Calm Calm - N/A   Clear
11:51 AM 70.0 °F 44.1 °F 39% 30.06 in 10.0 mi Variable 3.5 mph - N/A   Clear
12:51 PM 75.9 °F 45.0 °F 33% 30.03 in 10.0 mi Variable 4.6 mph - N/A   Clear
1:51 PM 80.1 °F 44.1 °F 28% 30.01 in 10.0 mi Calm Calm - N/A   Clear
2:51 PM 82.0 °F 39.9 °F 22% 29.99 in 10.0 mi WSW 9.2 mph - N/A   Clear
3:51 PM 82.9 °F 37.9 °F 20% 29.98 in 10.0 mi WNW 6.9 mph - N/A   Clear
4:51 PM 84.0 °F 39.0 °F 20% 29.97 in 10.0 mi West 9.2 mph - N/A   Clear
5:51 PM 82.9 °F 42.1 °F 24% 29.97 in 10.0 mi NW 6.9 mph - N/A   Clear
6:51 PM 79.0 °F 44.1 °F 29% 29.98 in 10.0 mi WNW 4.6 mph - N/A   Clear
7:51 PM 71.6 °F 48.2 °F 43% 29.99 in 10.0 mi Calm Calm - N/A   Clear
8:51 PM 64.9 °F 51.1 °F 61% 30.00 in 10.0 mi Calm Calm - N/A   Clear
9:51 PM 63.0 °F 51.1 °F 65% 30.01 in 10.0 mi Calm Calm - N/A   Clear
10:51 PM 62.1 °F 51.1 °F 67% 30.01 in 10.0 mi Calm Calm - N/A   Clear
11:51 PM 60.1 °F 52.0 °F 75% 30.01 in 10.0 mi Calm Calm - N/A   Clear